Location: Newark
(54.4000°N, 32.4500°E)
Time: 19:44:27
(UTC+00:00)

ISS - Pass Details

Date: 27 January 2020
Orbit: 415 x 422 km, 51.6° (Epoch: 23 February)

Event Time Altitude Azimuth Distance (km) Brightness Sun altitude
Rises 15:02:26 0° 223° (SW) 2,372 1.5 -6.5°
Reaches altitude 10° 15:04:45 10° 210° (SSW) 1,509 -0.1 -6.9°
Maximum altitude 15:07:36 25° 153° (SSE) 901 -2.1 -7.2°
Drops below altitude 10° 15:10:26 10° 97° (E) 1,512 -1.5 -7.6°
Enters shadow 15:10:48 - 93° (E) 1,643 -1.3 -7.7°
